Regional Weather Roundup
Issued by NWS Little Rock, AR

Home | Current Version | Previous Version | Text Only | Print | Product List | Glossary On
Versions: 1 2 3 4 5 6 7 8 9 10 11 12 13 14 15 16 17 18 19 20 21 22 23 24 25 26 27 28 29 30 31
000
ASUS44 KLZK 240505
RWRLZK

WEATHER ROUNDUP FOR ARKANSAS
NATIONAL WEATHER SERVICE LITTLE ROCK AR
1100 PM CST MON JAN 23 2017

NOTE: "FAIR" INDICATES FEW OR NO CLOUDS BELOW 12,000 FEET WITH NO
SIGNIFICANT WEATHER AND/OR OBSTRUCTIONS TO VISIBILITY.

ARZ001-003-010-029-240600-
NORTHWEST ARKANSAS

CITY           SKY/WX    TMP DP  RH WIND       PRES   REMARKS
FAYETTEVILLE   CLEAR     31  31 100 CALM      29.82S
FORT SMITH     CLEAR     41  36  82 NE6       29.83R
HARRISON       CLEAR     36  32  85 S5        29.84S
BENTONVILLE    CLEAR    N/A N/A N/A E5        29.81S
ROGERS         CLEAR     39  35  86 E8        29.82S
SILOAM SPGS      N/A    N/A N/A N/A MISG        N/A
HIGHFILL       CLEAR     39  31  72 CALM      29.81S
$$

ARZ004-005-016-240600-
NORTH CENTRAL ARKANSAS

CITY           SKY/WX    TMP DP  RH WIND       PRES   REMARKS
BATESVILLE     CLEAR     37  34  87 CALM      29.88S
FLIPPIN        CLEAR     36  28  75 CALM      29.83S
MTN HOME       CLEAR     38  32  79 CALM      29.84S
$$

ARZ040-041-240600-
WEST CENTRAL ARKANSAS

CITY           SKY/WX    TMP DP  RH WIND       PRES   REMARKS
MENA           CLEAR     37  36  93 CALM      29.86R
MOUNT IDA      CLEAR     36  34  92 CALM      29.83R
$$

ARZ009-017-025-026-028-240600-
NORTHEAST ARKANSAS

CITY           SKY/WX    TMP DP  RH WIND       PRES   REMARKS
CORNING        FAIR      37  37 100 CALM      29.89S
JONESBORO      CLEAR     37  35  92 NE3       29.88S
NEWPORT        CLEAR     42  38  85 SE3       29.88F
WALNUT RIDGE   CLEAR     39  34  81 CALM      29.87S
BLYTHEVILLE    CLEAR     40  36  86 E5        29.89R
$$

ARZ022-023-033-042-044-240600-
CENTRAL ARKANSAS

CITY           SKY/WX    TMP DP  RH WIND       PRES   REMARKS
LITTLE ROCK    CLEAR     40  38  93 CALM      29.87S
N LITTLE ROCK    N/A     44  37  79 CALM      29.88S
JACKSONVILLE   CLEAR     37  37  98 CALM      29.86F
SEARCY         CLEAR     36  36 100 CALM      29.89S
HOT SPRINGS    CLEAR     39  37  92 CALM      29.87R
RUSSELLVILLE   CLEAR     37  35  92 CALM      29.85S
CLINTON        FAIR      32  32 100 CALM      29.87F FOG
$$

ARZ036-240600-
EAST ARKANSAS

CITY           SKY/WX    TMP DP  RH WIND       PRES   REMARKS
WEST MEMPHIS   CLEAR     39  39 100 CALM      29.87R
$$

ARZ050-053-066-070-073-240600-
SOUTHWEST ARKANSAS

CITY           SKY/WX    TMP DP  RH WIND       PRES   REMARKS
ARKADELPHIA    FAIR      41  40  96 CALM      29.88R
CAMDEN         CLEAR     37  36  93 CALM      29.89R
TEXARKANA      CLEAR     49  39  68 SE6       29.85S
EL DORADO        N/A    N/A N/A N/A MISG      29.88R
DE QUEEN       CLEAR     38  38 100 E3        29.84S
$$

ARZ056-057-069-240600-
SOUTHEAST ARKANSAS

CITY           SKY/WX    TMP DP  RH WIND       PRES   REMARKS
PINE BLUFF     CLEAR     44  41  89 CALM      29.88R
STUTTGART      CLEAR     45  36  70 SE5       29.88S
MONTICELLO     CLEAR     45  41  86 CALM      29.88R

$$






USA.gov is the U.S. government's official web portal to all federal, state and local government web resources and services.